Youngstown, OH

10:23 PM EST on December 12, 2017 (GMT -0500)
Youngstown-Warren Regional

Weather History for KYNG - February, 2012

Change the Weather History Date:

Monday, February 13, 2012

  Actual Average Record
Temperature  
Mean Temperature 24 °F 28 °F  
Max Temperature 34 °F 36 °F 63 °F (1990)
Min Temperature 14 °F 20 °F -4 °F (1981)
Degree Days  
Heating Degree Days 41 37  
Month to date heating degree days 438 494  
Since 1 July heating degree days 3485 4117  
Cooling Degree Days 0 0  
Month to date cooling degree days 0 0  
Year to date cooling degree days 0 0  
Moisture  
Dew Point 12 °F    
Average Humidity 61    
Maximum Humidity 80    
Minimum Humidity 41    
Precipitation  
Precipitation 0.00 in 0.07 in 1.88 in (1950)
Month to date precipitation 0.53 0.97  
Year to date precipitation 5.04 3.52  
Snow  
Snow 0.00 in 0.40 in - ()
Month to date snowfall 8.5 5.8  
Since 1 July snowfall 44.8 41.8  
Snow Depth 6.00 in    
Sea Level Pressure  
Sea Level Pressure 30.12 in    
Wind  
Wind Speed 10 mph (SW)    
Max Wind Speed 17 mph    
Max Gust Speed 23 mph    
Visibility 10 miles    
Events      
T = Trace of Precipitation, MM = Missing Value Source: NWS Daily Summary

Daily Weather History Graph

Daily Weather History Graph

Search for Another Location

Airport or City:

Trip Planner

Search our weather history database for the weather conditions in past years. The results will help you decide how hot, cold, wet, or windy it might be!

Date:

Astronomy

Feb. 13, 2012 Rise Set
Actual Time 7:20 AM EST 5:53 PM EST
Civil Twilight 6:52 AM EST 6:22 PM EST
Nautical Twilight 6:19 AM EST 6:54 PM EST
Astronomical Twilight 5:47 AM EST 7:26 PM EST
Moon No Moon Rise 10:13 AM EST
Length of Visible Light 11h 29m
Length of Day
10h 32m
Waning Gibbous, 62% of the Moon is Illuminated
Feb 13
Waning Gibbous
Feb 14
Last Quarter
Feb 21
New
Feb 29
First Quarter
Mar 8
Full

Hourly Weather History & Observations

Time (EST) Temp. Windchill Dew Point Humidity Pressure Visibility Wind Dir Wind Speed Gust Speed Precip Events Conditions
12:51 AM 15.1 °F 4.2 °F 10.0 °F 80% 30.15 in 10.0 mi WSW 8.1 mph - N/A   Partly Cloudy
1:51 AM 15.1 °F 3.3 °F 10.0 °F 80% 30.15 in 10.0 mi SW 9.2 mph - N/A   Clear
2:51 AM 15.1 °F 5.2 °F 9.0 °F 77% 30.14 in 10.0 mi SW 6.9 mph - N/A   Clear
3:51 AM 15.1 °F 6.4 °F 9.0 °F 77% 30.14 in 10.0 mi SSW 5.8 mph - N/A   Clear
4:51 AM 15.1 °F 7.7 °F 9.0 °F 77% 30.15 in 10.0 mi SSW 4.6 mph - N/A   Clear
5:51 AM 15.8 °F 6.1 °F 8.6 °F 73% 30.09 in 10.0 mi SW 6.9 mph - N/A   Clear
6:51 AM 17.1 °F 5.8 °F 10.0 °F 74% 30.15 in 10.0 mi SW 9.2 mph - N/A   Clear
7:51 AM 17.1 °F 5.0 °F 10.9 °F 77% 30.16 in 10.0 mi SW 10.4 mph - N/A   Partly Cloudy
8:51 AM 19.9 °F 6.2 °F 12.0 °F 71% 30.17 in 10.0 mi SW 15.0 mph - N/A   Clear
9:51 AM 24.1 °F 12.5 °F 14.0 °F 65% 30.17 in 10.0 mi SW 12.7 mph - N/A   Partly Cloudy
10:51 AM 26.1 °F 15.6 °F 14.0 °F 60% 30.17 in 10.0 mi SW 11.5 mph - N/A   Partly Cloudy
11:51 AM 28.9 °F 18.6 °F 15.1 °F 56% 30.16 in 10.0 mi SW 12.7 mph - N/A   Partly Cloudy
12:51 PM 32.0 °F 22.5 °F 15.1 °F 50% 30.14 in 10.0 mi WSW 12.7 mph - N/A   Partly Cloudy
1:51 PM 33.1 °F 22.2 °F 12.9 °F 43% 30.13 in 10.0 mi SW 17.3 mph 23.0 mph N/A   Partly Cloudy
2:51 PM 33.1 °F 23.9 °F 12.0 °F 42% 30.11 in 10.0 mi SW 12.7 mph - N/A   Mostly Cloudy
3:51 PM 32.0 °F 23.0 °F 12.0 °F 44% 30.10 in 10.0 mi SW 11.5 mph - N/A   Overcast
4:51 PM 32.0 °F 21.6 °F 12.9 °F 45% 30.10 in 10.0 mi SW 15.0 mph - N/A   Overcast
5:51 PM 32.0 °F 23.6 °F 12.9 °F 45% 30.09 in 10.0 mi SW 10.4 mph - N/A   Overcast
6:51 PM 32.0 °F 24.8 °F 12.9 °F 45% 30.10 in 10.0 mi SW 8.1 mph - N/A   Overcast
7:51 PM 30.9 °F 23.5 °F 14.0 °F 50% 30.07 in 10.0 mi SSW 8.1 mph - N/A   Overcast
8:51 PM 30.0 °F 21.1 °F 12.9 °F 49% 30.07 in 10.0 mi SSW 10.4 mph - N/A   Overcast
9:51 PM 28.9 °F 21.9 °F 12.9 °F 51% 30.06 in 10.0 mi SW 6.9 mph - N/A   Overcast
10:51 PM 30.0 °F 22.4 °F 12.9 °F 49% 30.06 in 10.0 mi SSW 8.1 mph - N/A   Overcast
11:51 PM 30.0 °F 26.5 °F 14.0 °F 51% 30.06 in 10.0 mi SSW 3.5 mph - N/A   Overcast